GW6455 Weather Reports


Display with metric or nautical units.
time (UTC)temp
F
wind
direction
speed
MPH
gust
MPH
rain 1hr
in
rain 24hr
in
rain mn
in
humidity
%
barometer
mb
20260906200241 65 155 4.0 4.0 0.00 0.00 0.00 55 1014.1
20260906195737 65 160 4.0 6.0 0.00 0.00 0.00 56 1014.1
20260906195233 66 156 2.0 2.0 0.00 0.00 0.00 55 1014.3
20260906194729 65 115 6.0 8.0 0.00 0.00 0.00 54 1014.2
20260906194225 66 191 2.0 3.0 0.00 0.00 0.00 54 1014.3
20260906193720 65 173 3.0 4.0 0.00 0.00 0.00 55 1014.6
20260906193220 65 102 3.0 4.0 0.00 0.00 0.00 55 1014.4
20260906192716 64 112 5.0 6.0 0.00 0.00 0.00 56 1014.4
20260906192210 64 140 4.0 6.0 0.00 0.00 0.00 56 1014.6
20260906191710 63 37 2.0 3.0 0.00 0.00 0.00 56 1014.5
20260906191204 65 66 3.0 7.0 0.00 0.00 0.00 55 1014.6
20260906190704 65 181 1.0 2.0 0.00 0.00 0.00 57 1014.6
20260906190159 65 0 1.0 2.0 0.00 0.00 0.00 57 1014.6
20260906185658 64 160 6.0 8.0 0.00 0.00 0.00 55 1014.4
20260906185157 63 115 4.0 7.0 0.00 0.00 0.00 58 1014.3
20260906184651 63 62 3.0 4.0 0.00 0.00 0.00 59 1014.4
20260906184147 62 58 3.0 4.0 0.00 0.00 0.00 59 1014.4
20260906183642 62 171 2.0 3.0 0.00 0.00 0.00 61 1014.6
20260906183139 62 225 2.0 4.0 0.00 0.00 0.00 59 1014.5
20260906182639 61 191 1.0 1.0 0.00 0.00 0.00 62 1014.5
20260906182135 61 43 2.0 2.0 0.00 0.00 0.00 61 1014.8
20260906181630 60 98 3.0 4.0 0.00 0.00 0.00 62 1014.7
20260906181126 60 127 2.0 3.0 0.00 0.00 0.00 63 1014.8
20260906180621 60 172 3.0 4.0 0.00 0.00 0.00 62 1014.9
20260906180120 60 186 5.0 9.0 0.00 0.00 0.00 63 1014.6
20260906175619 59 166 6.0 8.0 0.00 0.00 0.00 63 1014.9
20260906175114 59 141 5.0 6.0 0.00 0.00 0.00 64 1015.0
20260906174612 59 166 8.0 9.0 0.00 0.00 0.00 63 1015.0
20260906174107 59 115 2.0 3.0 0.00 0.00 0.00 64 1015.1
20260906173602 59 14 2.0 3.0 0.00 0.00 0.00 64 1015.2
20260906173058 59 159 5.0 6.0 0.00 0.00 0.00 62 1015.5
20260906172557 60 159 6.0 7.0 0.00 0.00 0.00 62 1015.5
20260906172053 59 142 4.0 4.0 0.00 0.00 0.00 64 1015.7
20260906171553 58 127 5.0 6.0 0.00 0.00 0.00 65 1015.8
20260906171048 58 288 1.0 1.0 0.00 0.00 0.00 66 1015.8
20260906170544 57 96 4.0 6.0 0.00 0.00 0.00 67 1016.1
20260906170043 57 76 2.0 3.0 0.00 0.00 0.00 67 1016.2
20260906165540 56 143 1.0 2.0 0.00 0.00 0.00 68 1016.1
20260906165035 55 183 2.0 3.0 0.00 0.00 0.00 70 1016.2
20260906164534 55 36 4.0 4.0 0.00 0.00 0.00 69 1016.2
20260906164030 55 125 5.0 7.0 0.00 0.00 0.00 69 1016.3
20260906163526 55 181 3.0 3.0 0.00 0.00 0.00 70 1016.1
20260906163021 54 129 4.0 6.0 0.00 0.00 0.00 69 1016.5
20260906162518 54 332 2.0 2.0 0.00 0.00 0.00 69 1016.4
20260906162013 54 194 1.0 1.0 0.00 0.00 0.00 68 1016.4
20260906161508 54 159 2.0 3.0 0.00 0.00 0.00 70 1016.4
20260906161007 54 67 3.0 3.0 0.00 0.00 0.00 68 1016.6
20260906160506 54 359 2.0 3.0 0.00 0.00 0.00 68 1016.6
20260906160005 53 67 3.0 4.0 0.00 0.00 0.00 69 1016.5
20260906155503 53 95 2.0 4.0 0.00 0.00 0.00 69 1016.6
20260906154959 53 35 3.0 3.0 0.00 0.00 0.00 69 1016.5
20260906154454 52 180 1.0 1.0 0.00 0.00 0.00 71 1016.7
20260906153952 53 351 4.0 6.0 0.00 0.00 0.00 70 1016.7
20260906153451 53 235 1.0 1.0 0.00 0.00 0.00 72 1016.6
20260906152948 52 147 1.0 1.0 0.00 0.00 0.00 73 1016.7
20260906152448 51 278 1.0 1.0 0.00 0.00 0.00 74 1017.0
20260906151946 51 220 0.0 1.0 0.00 0.00 0.00 75 1016.9
20260906151442 51 125 2.0 2.0 0.00 0.00 0.00 74 1016.8
20260906150937 50 48 3.0 3.0 0.00 0.00 0.00 75 1016.9
20260906150433 50 37 1.0 2.0 0.00 0.00 0.00 76 1016.7
20260906145932 49 28 2.0 3.0 0.00 0.00 0.00 77 1016.9
20260906145431 49 11 2.0 4.0 0.00 0.00 0.00 77 1016.7
20260906144926 48 15 4.0 4.0 0.00 0.00 0.00 78 1016.7
20260906144421 48 18 1.0 1.0 0.00 0.00 0.00 78 1016.8
20260906143916 48 25 0.0 1.0 0.00 0.00 0.00 81 1016.8
20260906143412 47 344 2.0 2.0 0.00 0.00 0.00 81 1016.7
20260906142908 46 340 1.0 1.0 0.00 0.00 0.00 83 1016.7
20260906142408 45 301 0.0 0.0 0.00 0.00 0.00 85 1016.8
20260906141908 44 322 1.0 2.0 0.00 0.00 0.00 88 1016.5
20260906141402 43 323 1.0 1.0 0.00 0.00 0.00 91 1016.7
20260906140901 43 324 0.0 0.0 0.00 0.00 0.00 88 1016.7
20260906140356 43 324 1.0 1.0 0.00 0.00 0.00 90 1016.6
20260906135855 44 303 0.0 1.0 0.00 0.00 0.00 88 1016.8
20260906135354 44 17 2.0 2.0 0.00 0.00 0.00 89 1016.6
20260906134849 44 321 0.0 1.0 0.00 0.00 0.00 89 1016.7
20260906134344 43 6 1.0 2.0 0.00 0.00 0.00 91 1016.6
20260906133840 41 310 1.0 2.0 0.00 0.00 0.00 91 1016.4
20260906133336 42 304 1.0 1.0 0.00 0.00 0.00 91 1016.6
20260906132831 42 309 1.0 1.0 0.00 0.00 0.00 91 1016.7
20260906132326 42 320 1.0 1.0 0.00 0.00 0.00 91 1016.7
20260906131822 42 1 2.0 3.0 0.00 0.00 0.00 92 1016.7
20260906131317 42 304 0.0 1.0 0.00 0.00 0.00 93 1016.8
20260906130813 41 316 0.0 1.0 0.00 0.00 0.00 94 1016.6
20260906130312 41 349 1.0 2.0 0.00 0.00 0.00 95 1016.6
20260906125811 42 313 0.0 0.0 0.00 0.00 0.00 94 1016.4
20260906125309 41 344 1.0 2.0 0.00 0.00 0.00 95 1016.4
20260906124810 41 327 0.0 0.0 0.00 0.00 0.00 95 1016.5
20260906124306 41 317 1.0 1.0 0.00 0.00 0.00 95 1016.4
20260906123804 41 323 0.0 0.0 0.00 0.00 0.00 94 1016.4
20260906123259 41 314 1.0 1.0 0.00 0.00 0.00 94 1016.5
20260906122759 42 318 1.0 1.0 0.00 0.00 0.00 94 1016.5
20260906122255 41 312 1.0 1.0 0.00 0.00 0.00 94 1016.6
20260906121751 42 308 0.0 1.0 0.00 0.00 0.00 93 1016.4
20260906121247 43 317 1.0 1.0 0.00 0.00 0.00 92 1016.4
20260906120742 43 313 0.0 1.0 0.00 0.00 0.00 92 1016.4
20260906120239 43 337 1.0 2.0 0.00 0.00 0.00 93 1016.4
20260906115735 43 318 0.0 1.0 0.00 0.00 0.00 93 1016.3
20260906115230 42 299 0.0 0.0 0.00 0.00 0.00 93 1016.4
20260906114729 42 333 1.0 1.0 0.00 0.00 0.00 94 1016.6
20260906114224 41 304 0.0 1.0 0.00 0.00 0.00 93 1016.5
20260906113719 42 306 0.0 0.0 0.00 0.00 0.00 92 1016.6
20260906113219 43 312 0.0 0.0 0.00 0.00 0.00 92 1016.7
20260906112718 43 319 0.0 0.0 0.00 0.00 0.00 94 1016.5
20260906112216 42 326 1.0 2.0 0.00 0.00 0.00 95 1016.8
20260906111714 42 306 1.0 1.0 0.00 0.00 0.00 97 1016.5
20260906111209 41 329 1.0 1.0 0.00 0.00 0.00 97 1016.6
20260906110704 42 316 1.0 1.0 0.00 0.00 0.00 98 1016.5
20260906110201 39 356 1.0 2.0 0.00 0.00 0.00 97 1016.5
20260906105659 39 304 0.0 0.0 0.00 0.00 0.00 98 1016.5
20260906105156 39 299 0.0 0.0 0.00 0.00 0.00 98 1016.7
20260906104655 39 341 2.0 2.0 0.00 0.00 0.00 98 1016.8
20260906104154 39 293 0.0 0.0 0.00 0.00 0.00 98 1016.9
20260906103652 40 293 0.0 0.0 0.00 0.00 0.00 98 1016.8
20260906103148 39 285 0.0 0.0 0.00 0.00 0.00 98 1016.9
20260906102643 39 280 0.0 0.0 0.00 0.00 0.00 98 1016.8
20260906102143 39 272 0.0 0.0 0.00 0.00 0.00 97 1016.7
20260906101642 39 287 0.0 0.0 0.00 0.00 0.00 98 1016.9
20260906101137 39 314 0.0 1.0 0.00 0.00 0.00 98 1017.0
20260906100633 40 295 0.0 0.0 0.00 0.00 0.00 98 1016.9
20260906100128 39 295 0.0 0.0 0.00 0.00 0.00 98 1016.8
20260906095628 39 281 0.0 0.0 0.00 0.00 0.00 97 1017.1
20260906095123 39 281 0.0 0.0 0.00 0.00 0.00 97 1016.9
20260906094622 39 302 1.0 2.0 0.00 0.00 0.00 97 1016.8
20260906094118 39 280 0.0 0.0 0.00 0.00 0.00 97 1016.9
20260906093614 39 280 0.0 0.0 0.00 0.00 0.00 96 1017.0
20260906093114 39 280 0.0 0.0 0.00 0.00 0.00 96 1016.9
20260906092609 40 280 0.0 0.0 0.00 0.00 0.00 96 1017.0
20260906092104 40 280 0.0 0.0 0.00 0.00 0.00 96 1017.2
20260906091559 41 280 0.0 0.0 0.00 0.00 0.00 95 1017.1
20260906091056 41 280 0.0 0.0 0.00 0.00 0.00 95 1017.0
20260906090556 41 310 1.0 1.0 0.00 0.00 0.00 95 1017.3
20260906090056 41 298 1.0 2.0 0.00 0.00 0.00 95 1017.1
20260906085555 42 314 1.0 1.0 0.00 0.00 0.00 95 1017.3
20260906085050 42 307 0.0 0.0 0.00 0.00 0.00 93 1017.1
20260906084545 43 331 1.0 2.0 0.00 0.00 0.00 94 1017.2
20260906084043 42 303 0.0 0.0 0.00 0.00 0.00 93 1017.2
20260906083539 43 333 1.0 2.0 0.00 0.00 0.00 95 1017.3
20260906083039 43 313 0.0 0.0 0.00 0.00 0.00 94 1017.6
20260906082534 43 302 0.0 0.0 0.00 0.00 0.00 93 1017.5
20260906082030 44 302 0.0 0.0 0.00 0.00 0.00 93 1017.5
20260906081525 44 302 0.0 0.0 0.00 0.00 0.00 93 1017.4
20260906081021 44 302 0.0 0.0 0.00 0.00 0.00 92 1017.4
20260906080518 45 300 0.0 0.0 0.00 0.00 0.00 90 1017.5
20260906080014 46 310 1.0 1.0 0.00 0.00 0.00 89 1017.5
20260906075513 46 332 1.0 1.0 0.00 0.00 0.00 90 1017.5
20260906075008 45 307 1.0 1.0 0.00 0.00 0.00 89 1017.6
20260906074503 47 295 0.0 0.0 0.00 0.00 0.00 87 1017.4
20260906074001 46 325 1.0 1.0 0.00 0.00 0.00 87 1017.5
20260906073456 47 343 1.0 1.0 0.00 0.00 0.00 86 1017.4
20260906072952 47 358 1.0 2.0 0.00 0.00 0.00 88 1017.6
20260906072447 48 305 0.0 0.0 0.00 0.00 0.00 85 1017.6
20260906071943 48 323 1.0 1.0 0.00 0.00 0.00 85 1017.6
20260906071439 48 304 1.0 1.0 0.00 0.00 0.00 84 1017.5
20260906070935 48 359 2.0 2.0 0.00 0.00 0.00 84 1017.7
20260906070431 48 359 2.0 2.0 0.00 0.00 0.00 85 1017.5
20260906065926 48 300 0.0 0.0 0.00 0.00 0.00 84 1017.6
20260906065420 49 302 1.0 1.0 0.00 0.00 0.00 82 1017.6
20260906064916 50 303 1.0 1.0 0.00 0.00 0.00 81 1017.5
20260906064413 50 333 1.0 2.0 0.00 0.00 0.00 81 1017.6
20260906063912 50 321 1.0 2.0 0.00 0.00 0.00 80 1017.5
20260906063407 50 305 1.0 1.0 0.00 0.00 0.00 80 1017.5
20260906062902 50 339 1.0 1.0 0.00 0.00 0.00 79 1017.5
20260906062402 50 315 1.0 1.0 0.00 0.00 0.00 79 1017.6
20260906061857 51 73 3.0 3.0 0.00 0.00 0.00 79 1017.5
20260906061354 51 359 1.0 2.0 0.00 0.00 0.00 77 1017.5
20260906060848 51 321 1.0 1.0 0.00 0.00 0.00 77 1017.5
20260906060346 51 322 1.0 1.0 0.00 0.00 0.00 78 1017.7
20260906055841 51 330 2.0 2.0 0.00 0.00 0.00 78 1017.5
20260906055337 51 20 1.0 2.0 0.00 0.00 0.00 78 1017.6
20260906054832 51 324 1.0 1.0 0.00 0.00 0.00 77 1017.5
20260906054327 51 4 1.0 2.0 0.00 0.00 0.00 78 1017.6
20260906053824 51 317 1.0 2.0 0.00 0.00 0.00 77 1017.6
20260906053319 52 303 0.0 1.0 0.00 0.00 0.00 76 1017.5
20260906052814 52 22 2.0 2.0 0.00 0.00 0.00 76 1017.7
20260906052310 52 355 1.0 1.0 0.00 0.00 0.00 75 1017.6
20260906051807 53 9 2.0 2.0 0.00 0.00 0.00 75 1017.6
20260906051307 52 13 2.0 2.0 0.00 0.00 0.00 76 1017.8
20260906050802 53 24 1.0 2.0 0.00 0.00 0.00 75 1017.7
20260906050257 53 1 1.0 2.0 0.00 0.00 0.00 74 1017.5
20260906045756 53 346 1.0 1.0 0.00 0.00 0.00 74 1017.7
20260906045250 53 350 2.0 2.0 0.00 0.00 0.00 74 1017.7
20260906044747 54 19 3.0 4.0 0.00 0.00 0.00 74 1017.7
20260906044241 54 250 0.0 0.0 0.00 0.00 0.00 74 1017.8
20260906043737 54 36 2.0 3.0 0.00 0.00 0.00 74 1017.6
20260906043233 54 308 0.0 1.0 0.00 0.00 0.00 74 1017.6
20260906042733 55 292 0.0 0.0 0.00 0.00 0.00 73 1017.6
20260906042231 55 331 1.0 2.0 0.00 0.00 0.00 73 1017.5
20260906041728 55 347 0.0 1.0 0.00 0.00 0.00 72 1017.7
20260906041223 55 264 0.0 1.0 0.00 0.00 0.00 72 1017.7
20260906040718 56 38 0.0 1.0 0.00 0.00 0.00 72 1017.6
20260906040213 56 79 1.0 2.0 0.00 0.00 0.00 71 1017.6
20260906035709 57 93 1.0 2.0 0.00 0.00 0.00 69 1017.7
20260906035205 57 284 0.0 1.0 0.00 0.00 0.00 69 1017.6
20260906034704 57 310 0.0 1.0 0.00 0.00 0.00 68 1017.6
20260906034159 57 49 3.0 4.0 0.00 0.00 0.00 68 1017.5
20260906033655 57 147 2.0 2.0 0.00 0.00 0.00 69 1017.5
20260906033156 58 225 0.0 0.0 0.00 0.00 0.00 68 1017.7
20260906032651 58 176 1.0 2.0 0.00 0.00 0.00 68 1017.6
20260906032146 58 19 3.0 4.0 0.00 0.00 0.00 67 1017.7
20260906031641 58 60 3.0 7.0 0.00 0.00 0.00 67 1017.7
20260906031137 58 323 1.0 1.0 0.00 0.00 0.00 67 1017.6
20260906030636 59 290 0.0 0.0 0.00 0.00 0.00 65 1017.6
20260906030131 59 184 2.0 2.0 0.00 0.00 0.00 64 1017.5
20260906025630 59 299 0.0 0.0 0.00 0.00 0.00 65 1017.5
20260906025130 59 307 1.0 1.0 0.00 0.00 0.00 64 1017.3
20260906024624 59 308 0.0 0.0 0.00 0.00 0.00 63 1017.4
20260906024119 60 346 1.0 1.0 0.00 0.00 0.00 64 1017.5
20260906023615 60 131 1.0 2.0 0.00 0.00 0.00 64 1017.3
20260906023115 60 15 1.0 1.0 0.00 0.00 0.00 60 1017.2
20260906022610 61 33 1.0 2.0 0.00 0.00 0.00 60 1017.2
20260906022106 62 111 0.0 1.0 0.00 0.00 0.00 58 1017.2
20260906021602 63 254 0.0 0.0 0.00 0.00 0.00 57 1017.3
20260906021100 63 292 1.0 1.0 0.00 0.00 0.00 56 1017.2
20260906020600 64 303 0.0 1.0 0.00 0.00 0.00 56 1017.4
20260906020059 64 266 1.0 1.0 0.00 0.00 0.00 55 1017.3
20260906015554 65 18 2.0 2.0 0.00 0.00 0.00 55 1017.5
20260906015053 65 309 0.0 1.0 0.00 0.00 0.00 55 1017.3
20260906014548 66 221 0.0 1.0 0.00 0.00 0.00 54 1017.2
20260906014044 66 43 4.0 4.0 0.00 0.00 0.00 54 1017.3
20260906013538 66 25 4.0 4.0 0.00 0.00 0.00 54 1017.3
20260906013034 66 327 1.0 1.0 0.00 0.00 0.00 54 1017.3
20260906012529 67 95 2.0 3.0 0.00 0.00 0.00 53 1017.1
20260906012028 67 260 0.0 0.0 0.00 0.00 0.00 52 1017.2
20260906011525 67 302 3.0 3.0 0.00 0.00 0.00 52 1017.1
20260906011025 68 13 2.0 3.0 0.00 0.00 0.00 52 1017.1
20260906010520 68 153 0.0 1.0 0.00 0.00 0.00 52 1017.3
20260906010017 68 159 2.0 3.0 0.00 0.00 0.00 51 1017.2
20260906005516 69 184 2.0 4.0 0.00 0.00 0.00 50 1017.5
20260906005015 69 149 2.0 2.0 0.00 0.00 0.00 45 1017.4
20260906004514 69 127 2.0 2.0 0.00 0.00 0.00 46 1017.4
20260906004009 69 204 1.0 1.0 0.00 0.00 0.00 47 1017.3
20260906003504 69 251 1.0 1.0 0.00 0.00 0.00 50 1017.3
20260906003001 69 24 3.0 6.0 0.00 0.00 0.00 50 1017.4
20260906002500 69 174 4.0 4.0 0.00 0.00 0.00 46 1017.5
20260906001955 70 130 2.0 2.0 0.00 0.00 0.00 44 1017.4
20260906001451 70 236 0.0 0.0 0.00 0.00 0.00 44 1017.4
20260906000946 70 187 2.0 2.0 0.00 0.00 0.00 43 1017.6
20260906000442 69 165 2.0 3.0 0.00 0.00 0.00 44 1017.6
20260905235936 70 159 2.0 2.0 0.00 0.00 0.00 44 1017.5
20260905235436 70 60 2.0 2.0 0.00 0.00 0.00 45 1018.0
20260905234931 70 198 1.0 2.0 0.00 0.00 0.00 44 1017.5
20260905234426 70 219 1.0 1.0 0.00 0.00 0.00 44 1017.7
20260905233921 71 183 1.0 2.0 0.00 0.00 0.00 44 1018.0
20260905233416 71 223 1.0 1.0 0.00 0.00 0.00 42 1017.6
20260905232915 69 181 2.0 2.0 0.00 0.00 0.00 44 1017.7
20260905232411 70 140 3.0 3.0 0.00 0.00 0.00 44 1018.0
20260905231906 70 235 0.0 1.0 0.00 0.00 0.00 44 1017.6
20260905231402 70 117 4.0 4.0 0.00 0.00 0.00 43 1018.0
20260905230859 70 266 0.0 0.0 0.00 0.00 0.00 43 1018.0
20260905230356 70 201 2.0 3.0 0.00 0.00 0.00 45 1018.0
20260905225855 70 252 1.0 1.0 0.00 0.00 0.00 44 1018.0
20260905225350 70 146 3.0 3.0 0.00 0.00 0.00 44 1017.8
20260905224846 69 219 2.0 3.0 0.00 0.00 0.00 45 1018.0
20260905224342 69 209 5.0 6.0 0.00 0.00 0.00 45 1018.1
20260905223841 69 161 3.0 3.0 0.00 0.00 0.00 45 1018.0
20260905223340 69 136 4.0 4.0 0.00 0.00 0.00 47 1018.2
20260905222840 69 130 5.0 7.0 0.00 0.00 0.00 47 1018.3
20260905222338 69 109 5.0 6.0 0.00 0.00 0.00 46 1018.1
20260905221835 69 149 1.0 3.0 0.00 0.00 0.00 49 1018.4
20260905221331 69 194 2.0 3.0 0.00 0.00 0.00 47 1018.5
20260905220827 69 143 3.0 4.0 0.00 0.00 0.00 49 1018.6
20260905220323 68 148 3.0 3.0 0.00 0.00 0.00 47 1018.4
20260905215822 68 243 0.0 1.0 0.00 0.00 0.00 48 1018.4
20260905215318 68 149 2.0 3.0 0.00 0.00 0.00 47 1018.6
20260905214814 69 113 3.0 4.0 0.00 0.00 0.00 47 1018.6
20260905214309 68 220 1.0 1.0 0.00 0.00 0.00 47 1018.6
20260905213804 68 122 4.0 4.0 0.00 0.00 0.00 47 1018.7
20260905213300 67 12 2.0 2.0 0.00 0.00 0.00 48 1018.6
20260905212755 68 154 3.0 3.0 0.00 0.00 0.00 49 1018.8
20260905212255 67 119 4.0 4.0 0.00 0.00 0.00 49 1018.8
20260905211754 67 111 5.0 6.0 0.00 0.00 0.00 49 1018.8
20260905211250 67 244 0.0 1.0 0.00 0.00 0.00 49 1018.8
20260905210747 67 239 0.0 0.0 0.00 0.00 0.00 47 1019.0
20260905210246 67 266 0.0 0.0 0.00 0.00 0.00 47 1018.9
20260905205745 67 165 2.0 2.0 0.00 0.00 0.00 47 1019.1
20260905205240 67 175 2.0 3.0 0.00 0.00 0.00 49 1019.0
20260905204739 67 260 0.0 1.0 0.00 0.00 0.00 50 1018.9
20260905204235 67 193 2.0 2.0 0.00 0.00 0.00 47 1019.0
20260905203735 67 148 3.0 4.0 0.00 0.00 0.00 48 1019.2
20260905203230 67 174 3.0 3.0 0.00 0.00 0.00 49 1019.0
20260905202726 67 276 4.0 4.0 0.00 0.00 0.00 50 1019.1
20260905202221 66 288 1.0 1.0 0.00 0.00 0.00 49 1019.3
20260905201716 67 189 2.0 2.0 0.00 0.00 0.00 51 1019.3
20260905201216 66 122 3.0 4.0 0.00 0.00 0.00 53 1019.3